Ord, NE

3:38 PM CDT on April 25, 2017 (GMT -0500)
Sharp

Weather History for KODX - February, 2013

Change the Weather History Date:

Sunday, February 24, 2013

  Actual Average Record
Temperature  
Mean Temperature 21 °F 30 °F  
Max Temperature 32 °F 42 °F 63 °F (2009)
Min Temperature 10 °F 17 °F -11 °F (2003)
Degree Days  
Heating Degree Days 44 35  
Month to date heating degree days 855 904  
Since 1 July heating degree days 4809 4880  
Cooling Degree Days 0 0  
Month to date cooling degree days 0 0  
Year to date cooling degree days 0 0  
Moisture  
Dew Point 17 °F    
Average Humidity 84    
Maximum Humidity 96    
Minimum Humidity 72    
Precipitation  
Precipitation T in 0.01 in 0.58 in (2000)
Month to date precipitation 1.48 0.39  
Year to date precipitation 1.62 0.76  
Sea Level Pressure  
Sea Level Pressure 29.94 in    
Wind  
Wind Speed 5 mph (NNW)    
Max Wind Speed 14 mph    
Max Gust Speed 16 mph    
Visibility 3 miles    
Events Fog    
T = Trace of Precipitation, MM = Missing Value Source: NWS Daily Summary

Daily Weather History Graph

Daily Weather History Graph

Search for Another Location

Airport or City:

Trip Planner

Search our weather history database for the weather conditions in past years. The results will help you decide how hot, cold, wet, or windy it might be!

Date:

Astronomy

Feb. 24, 2013 Rise Set
Actual Time 7:17 AM CST 6:20 PM CST
Civil Twilight 6:49 AM CST 6:48 PM CST
Nautical Twilight 6:17 AM CST 7:20 PM CST
Astronomical Twilight 5:45 AM CST 7:53 PM CST
Moon 5:33 PM CST (2/24) 6:16 AM CST (2/24)
Length of Visible Light 11h 58m
Length of Day
11h 02m
Waxing Gibbous, 99% of the Moon is Illuminated
Feb 24
Waxing Gibbous
Feb 25
Full
Mar 4
Last Quarter
Mar 11
New
Mar 19
First Quarter

Hourly Weather History & Observations

Time (CST) Temp. Windchill Dew Point Humidity Pressure Visibility Wind Dir Wind Speed Gust Speed Precip Events Conditions
12:07 AM 15.8 °F - 14.0 °F 93% 29.78 in 0.5 mi Calm Calm - N/A Fog Light Freezing Fog
12:15 AM 15.8 °F - 12.2 °F 86% 29.78 in 0.2 mi Calm Calm - N/A Fog Light Freezing Fog
12:22 AM 15.8 °F - 15.8 °F 100% 29.78 in 0.2 mi Calm Calm - N/A Fog Light Freezing Fog
12:29 AM 15.8 °F - 14.0 °F 93% 29.78 in 0.2 mi Calm Calm - N/A Fog Light Freezing Fog
12:53 AM 10.9 °F - 9.0 °F 92% 29.88 in 0.2 mi Calm Calm - N/A Fog Light Freezing Fog
1:02 AM 14.0 °F - 12.2 °F 93% 29.79 in 0.2 mi Calm Calm - N/A Fog Light Freezing Fog
1:26 AM 15.8 °F - 12.2 °F 86% 29.80 in 0.2 mi Calm Calm - N/A Fog Light Freezing Fog
1:53 AM 16.0 °F - 12.9 °F 88% 29.88 in 0.2 mi Calm Calm - N/A Fog Light Freezing Fog
2:04 AM 15.8 °F - 12.2 °F 86% 29.81 in 0.2 mi Calm Calm - N/A Fog Light Freezing Fog
2:15 AM 14.0 °F 8.2 °F 10.4 °F 86% 29.81 in 0.2 mi North 3.5 mph - N/A Fog Light Freezing Fog
2:53 AM 14.0 °F - 10.9 °F 88% 29.88 in 0.2 mi Calm Calm - N/A Fog Light Freezing Fog
3:05 AM 14.0 °F - 12.2 °F 93% 29.81 in 0.2 mi Calm Calm - N/A Fog Light Freezing Fog
3:13 AM 12.2 °F - 10.4 °F 92% 29.80 in 0.2 mi Calm Calm - N/A Fog Light Freezing Fog
3:53 AM 12.9 °F - 9.0 °F 84% 29.89 in 0.5 mi Calm Calm - N/A Fog Light Freezing Fog
4:13 AM 10.4 °F - 8.6 °F 92% 29.81 in 0.2 mi Calm Calm - N/A Fog Light Freezing Fog
4:53 AM 12.9 °F - 10.0 °F 88% 29.90 in 0.2 mi Calm Calm - N/A Fog Light Freezing Fog
5:53 AM 15.1 °F - 12.0 °F 88% 29.91 in 0.2 mi Calm Calm - N/A Fog Light Freezing Fog
6:42 AM 15.8 °F - 12.2 °F 86% 29.85 in 0.2 mi Calm Calm - N/A Fog Light Freezing Fog
6:53 AM 16.0 °F - 12.9 °F 88% 29.95 in 0.2 mi Calm Calm - N/A Fog Light Freezing Fog
7:23 AM 17.6 °F - 14.0 °F 86% 29.86 in 0.2 mi Calm Calm - N/A Fog Light Freezing Fog
7:53 AM 16.0 °F 7.4 °F 12.9 °F 88% 29.97 in 0.2 mi NW 5.8 mph - N/A Fog Light Freezing Fog
8:53 AM 19.0 °F 12.3 °F 15.1 °F 85% 30.00 in 0.2 mi NW 4.6 mph - N/A Fog Light Freezing Fog
9:26 AM 19.4 °F 9.5 °F 15.8 °F 86% 29.91 in 1.2 mi NNW 8.1 mph - N/A   Mostly Cloudy
9:32 AM 19.4 °F 10.4 °F 15.8 °F 86% 29.92 in 2.5 mi NNW 6.9 mph - N/A   Scattered Clouds
9:53 AM 21.0 °F 12.4 °F 17.1 °F 85% 30.02 in 3.0 mi NW 6.9 mph - N/A   Clear
10:19 AM 24.8 °F 20.5 °F 19.4 °F 80% 29.93 in 3.0 mi NNW 3.5 mph - N/A   Scattered Clouds
10:36 AM 24.8 °F 19.1 °F 21.2 °F 86% 29.94 in 3.0 mi NNW 4.6 mph - N/A   Mostly Cloudy
10:53 AM 26.1 °F - 21.9 °F 84% 30.03 in 3.0 mi Calm Calm - N/A   Overcast
11:41 AM 26.6 °F 19.1 °F 23.0 °F 86% 29.94 in 3.0 mi North 6.9 mph - N/A   Scattered Clouds
11:53 AM 28.0 °F 19.3 °F 23.0 °F 81% 30.04 in 4.0 mi North 9.2 mph - N/A   Haze
12:53 PM 28.0 °F 18.6 °F 23.0 °F 81% 30.04 in 5.0 mi NNW 10.4 mph - 0.00 in   Haze
1:53 PM 30.9 °F 21.7 °F 24.1 °F 76% 30.00 in 5.0 mi North 11.5 mph - 0.00 in   Haze
2:53 PM 32.0 °F 24.2 °F 24.1 °F 73% 30.03 in 7.0 mi North 9.2 mph - N/A   Mostly Cloudy
3:53 PM 30.9 °F 21.7 °F 23.0 °F 72% 30.03 in 8.0 mi North 11.5 mph - N/A   Overcast
4:53 PM 30.9 °F 24.3 °F 23.0 °F 72% 30.04 in 8.0 mi North 6.9 mph - N/A   Overcast
5:53 PM 30.0 °F 21.1 °F 23.0 °F 75% 30.06 in 6.0 mi North 10.4 mph - N/A   Haze
6:53 PM 28.9 °F 22.8 °F 23.0 °F 78% 30.09 in 7.0 mi North 5.8 mph - N/A   Overcast
7:53 PM 28.0 °F 19.3 °F 23.0 °F 81% 30.11 in 7.0 mi North 9.2 mph - N/A   Overcast
8:53 PM 28.0 °F 20.0 °F 23.0 °F 81% 30.13 in 7.0 mi NNW 8.1 mph - N/A   Overcast
9:53 PM 28.9 °F 23.9 °F 23.0 °F 78% 30.15 in 8.0 mi North 4.6 mph - N/A   Overcast
10:53 PM 28.0 °F 22.8 °F 23.0 °F 81% 30.15 in 9.0 mi NNW 4.6 mph - N/A   Overcast
11:53 PM 28.0 °F 20.8 °F 23.0 °F 81% 30.13 in 10.0 mi NW 6.9 mph - N/A   Overcast